Left ArrowRight Arrow

34.74481, -87.66753

Hourly Observations for February 13, 2023

Temp ( °F °C ) Dew Point ( °F °C ) Humidity (%) Winds ( mph kmh ) Pressure ( in mb ) Visibility ( mi km ) Precip ( " mm )
12:53 am 00:53 Clear 36 2.2 31 -0.6 82 82 Calm 30.02 1017 10 16 0.00 0.00
1:53 am 01:53 Clear 35 1.7 30 -1.1 82 82 Calm 30.02 1017 10 16 0.00 0.00
2:53 am 02:53 Clear 34 1.1 28 -2.2 79 79 Calm 30.01 1016 10 16 0.00 0.00
3:53 am 03:53 Clear 33 0.6 27 -2.8 78 78 Calm 30.02 1017 10 16 0.00 0.00
4:53 am 04:53 Clear 33 0.6 28 -2.2 81 81 Calm 30.03 1017 10 16 0.00 0.00
5:53 am 05:53 Clear 31 -0.6 28 -2.2 89 89 ESE 3 6 30.03 1017 10 16 0.00 0.00
6:53 am 06:53 Sunny 33 0.6 28 -2.2 81 81 Calm 30.04 1017 10 16 0.00 0.00
7:53 am 07:53 Sunny 39 3.9 32 0 76 76 Calm 30.05 1018 10 16 0.00 0.00
8:53 am 08:53 Sunny 48 8.9 31 -0.6 51 51 Calm 30.03 1017 10 16 0.00 0.00
9:53 am 09:53 Sunny 57 13.9 34 1.1 42 42 W 12 19 30.03 1017 10 16 0.00 0.00
10:53 am 10:53 Sunny 61 16.1 37 2.8 41 41 WSW 13 20 30.02 1017 10 16 0.00 0.00
11:53 am 11:53 Sunny 64 17.8 37 2.8 37 37 WNW 12 19 29.99 1016 10 16 0.00 0.00
12:53 pm 12:53 Sunny 66 18.9 37 2.8 34 34 W 10 17 29.96 1014 10 16 0.00 0.00
1:53 pm 13:53 Sunny 68 20 37 2.8 32 32 WSW 9 15 29.93 1014 10 16 0.00 0.00
2:53 pm 14:53 Sunny 68 20 36 2.2 31 31 WSW 6 9 29.93 1013 10 16 0.00 0.00
3:53 pm 15:53 Sunny 68 20 37 2.8 32 32 WSW 8 13 29.93 1014 10 16 0.00 0.00
4:53 pm 16:53 Sunny 64 17.8 39 3.9 40 40 SW 8 13 29.94 1014 10 16 0.00 0.00
5:53 pm 17:53 Clear 61 16.1 37 2.8 41 41 SSW 3 6 29.96 1015 10 16 0.00 0.00
6:53 pm 18:53 Clear 53 11.7 41 5 63 63 S 3 6 29.98 1015 10 16 0.00 0.00
7:53 pm 19:53 Clear 50 10 40 4.4 68 68 S 3 6 29.98 1015 10 16 0.00 0.00
8:53 pm 20:53 Clear 47 8.3 41 5 80 80 S 3 6 29.98 1015 10 16 0.00 0.00
9:53 pm 21:53 Clear 48 8.9 38 3.3 68 68 S 3 6 29.98 1015 10 16 0.00 0.00
10:53 pm 22:53 Clear 47 8.3 37 2.8 68 68 Calm 29.97 1015 10 16 0.00 0.00
11:53 pm 23:53 Clear 45 7.2 37 2.8 74 74 SE 3 6 29.96 1015 10 16 0.00 0.00

Powered by Vaisala Xweather